Погода Благодарный

Погода Благодарный : погода сейчас, прогноз погоды и архив. Всё, что Вы хотите узнать о погоде Благодарный!

Поиск расширенной информации на нашем сайте:

Другие новости

Новости СМИ2

Главная страница сайта

Новости сайта

03.07.2017

Напоминаем, что на нашем специализированном сайте Метеоцентр.Азия вы можете получить высокодетализированные автоматические прогнозы погоды по пунктам России, СНГ и мира в авиационном формате (включающие направление и скорость ветра, видимость, явления погоды, количество и форму облачности, нижнюю и верхнюю границу облачности).


Погода Благодарный - сегодня

Время (UTC), дата Ветер
(°,м/с) 
Видим.   Явления Облачность Т
(°С)
Тd
(°С)
f(%) Тe
(°С)
Pmin
(гПа)
dP
(гПа)
Po
(мм)
O2
(г/м3)
Тmin Tmax R s Состояние
почвы
18 20.02.18 100 (В) 20000 м    10/10 300 м 
[St]
+0.9 -1.3 85 -1  1031.5  0.6  758  305           
21 20.02.18 060 (СВ) 20000 м    10/10 300 м 
[St]
-0.3 -2.8 83 -1  1023  -0.3  752  304           
00 21.02.18 060 (СВ) 20000 м    10/10 300 м 
[St]
-0.4 -2.3 87 -1  1023.3  0.3  752  304           
03 21.02.18 080 (В) 20000 м    10/10 300 м 
[St]
-0.6 -2.2 89 -2  1023.1  0.3  752  304  -0.6         
06 21.02.18 080 (В) 4000 м  слаб. крупа{ливн. осадки}  10/10 600 м кучево-дожд. 
[Cb cap]
-0.8 -2.2 90 -3  1023.7  0.6  752  304  -0.9         
09 21.02.18 080 (В) 20000 м  {ливн. осадки}  10/10 600 м кучево-дожд. 
[Cb cap]
+0.1 -2 86 -2  1023  -0.7  752  303           
12 21.02.18 090 (В) 20000 м  {ливн. осадки}  10/10 600 м 
[Sc]
+0.5 -0 96 -2  1022.3  -0.6  751  302           
15 21.02.18 080 (В) 0500 м  туман  ?/?  
+0.4 +0.4 100 -2  1022.2  0.1  751  302    +0.7  0.0     
18 21.02.18 100 (В) 0500 м  слаб. морось{туман}  ?/?  
+1.3 +1.3 100 1022  0.1  751  301           
21 21.02.18 100 (В) 2000 м  слаб. морось  10/10 300 м 
[St]
+1 +1 100 -1  1021.3  -0.7  751  301           
00 22.02.18 100 (В) 4000 м  дымка{морось}  10/10 300 м 
[St]
+0.7 +0.7 100 -1  1020.5  -0.8  750  301           
03 22.02.18 100 (В) 4000 м  слаб. морось  10/10 300 м 
[St]
+0.1 +0.1 100 -2  1020.3  -0.3  750  302  +0.1    0.0     
06 22.02.18 100 (В) 4000 м  слаб. ливневой снег{морось}  10/10 600 м кучево-дожд. 
[Cb cap]
-0.2 -0.2 100 -2  1020.2  0.1  750  302  -0.2         
09 22.02.18 100 (В) 4000 м  дымка{ливн. осадки}  10/10 600 м кучево-дожд. 
[Cb cap]
+0.2 +0.2 100 -2  1019.8  -0.4  750  302           
12 22.02.18 110 (В) 4000 м  дымка{ливн. осадки}  10/10 300 м 
[St]
+1.3 +0.8 96 1019.1  -0.6  749  300           
15 22.02.18 110 (В) 4000 м  дымка  10/10 300 м 
[St]
+1.1 +0.9 99 1019.6  0.5  749  301    +1.4  0.4     
18 22.02.18 110 (В) 4000 м  дымка{снег}  10/10 300 м 
[Ns]
+0.6 +0.6 100 -2  1019.4  -0.2  749  301           
21 22.02.18 100 (В) 20000 м    10/10 300 м 
[St]
+0 -0 100 -2  1019.4  0.1  749  302           
00 23.02.18 100 (В) 20000 м    10/10 300 м 
[St]
-0.3 -0.5 99 -2  1018.7  -0.7  749  302           
06 23.02.18 110 (В) 4000 м  дымка  10/10 300 м 
[St]
-0.6 -0.6 100 -3  1018.2  0.1  748  302  -0.8         
09 23.02.18 100 (В) 4000 м  дымка{снег}  10/10 300 м 
[St]
+0.1 +0.1 100 -2  1017.4  -0.7  748  301           
12 23.02.18 100 (В) 4000 м  дымка{снег}  10/10 300 м 
[St]
+0.6 +0.6 100 -1  1016.2  -1.2  747  300           
15 23.02.18 110 (В) 0500 м  туман  ?/?  
+0.5 +0.5 100 -1  1015.4  -0.7  746  300    +0.7  0.0     
18 23.02.18 120 (ЮВ) 0500 м  туман  ?/?  
+0.8 +0.8 100 -1  1014.5  -0.9  746  299           
21 23.02.18 230 (ЮЗ) 2000 м  дымка{туман}  10/10 300 м 
[St]
+0.9 +0.9 100 +2  1014.9  0.4  746  299           
Время (UTC), дата Ветер
(°,м/с) 
Видим.   Явления Облачность Т
(°С)
Тd
(°С)
f(%) Тe
(°С)
Pmin
(гПа)
dP
(гПа)
Po
(мм)
O2
(г/м3)
Тmin Tmax R s Состояние
почвы

Для получения пояснительной информации подведите курсор к названию столбца.

ПОГОДА Благодарный - архив

Всё, что Вы хотите узнать о погоде Благодарный - удобно и подробно!

Выберите нужную дату (начиная с 1 января 2015* года) и нажмите кнопку "Найти".
Будут отображены архивные сводки погоды по пункту Благодарный, начиная с указанной даты.


Отображать данные в формате CSV (для использования в таблицах Excel)


Внимание! Наш архив погоды предназначен исключительно для личного некоммерческого использования в познавательных целях. Если Вам необходимы официальные справки о состоянии погоды (для производственных, юридических, коммерческих и т.п. целей), обращайтесь в органы Росгидромета.

*Примечание: данная дата относится к архиву по метеостанциям СССР (Россия, СНГ, Балтия).
Архив по метеостанциям Зарубежной Европы и Азии (кроме Китая) хранится 10 дней, по другим регионам земного шара (Китай, Африка, Америка, Австралия, Океания) - 1 день.

Благодарный - район местоположения метеостанции


Название, широта, долгота, высота метеостанции:
Благодарный 45.1°ш. 43.4°д. 162 м над ур. моря [Российская Федерация]

Дополнительная информация

В oтличие oт бoльшинства пoгoдных сайтoв мы публикуем пoдрoбную метеoинфoрмацию в детальнoм прoфессиoнальнoм фoрмате.

Характеристики температуры и влажнoсти вoздуха измеряются на высoте 2 м в тени вдали oт зданий и деревьев.
Скoрoсть ветра измеряется на высoте 10 м (на урoвне рoста челoвека скoрoсть ветра ниже в 1.5-2 раза). Если метеoстанция нахoдится в гoрoде или в лесу, тo скoрoсть ветра занижена на 2-4 м/с пo сравнению с oткрытым местoм. Скoрoсть ветра над акватoриями крупных рек и oзёр, а также на вершинах хoлмoв на 2-5 м/с выше, чем в oбычных услoвиях.
Атмoсфернoе давление в разных тoчках местнoсти мoжет значительнo oтличаться oт давления на метеoстанции, в зависимoсти oт услoвий рельефа (при пoдъёме на 10 м давление пoнижается примернo на 1 мм рт.ст.).